Location: Karcze
(52.0945°N, 22.4786°E)
Time: 12:27:09
(UTC+00:00)

Lacrosse 5 - Pass Details

Date: 14 July 2020
Orbit: 717 x 720 km, 57.0° (Epoch: 04 August)

Event Time Altitude Azimuth Distance (km) Brightness Sun altitude
Exits shadow 00:10:41 - 249° (WSW) 2,315 4.1 -13.4°
Reaches altitude 10° 00:10:59 10° 250° (WSW) 2,201 4.0 -13.4°
Maximum altitude 00:16:03 75° 336° (NNW) 749 2.0 -13.1°
Drops below altitude 10° 00:21:09 10° 62° (ENE) 2,209 5.2 -12.8°
Sets 00:23:32 0° 64° (ENE) 3,132 6.1 -12.6°
